Location: Unspecified
(0.0000°N, 0.0000°E)
Time: 07:57:08
(UTC+00:00)

Vanguard 2 - Pass Details

Date: 20 December 2018
Orbit: 553 x 2939 km, 32.9° (Epoch: 18 March)

Event Time Altitude Azimuth Distance (km) Brightness Sun altitude
Rises 05:26:16 0° 266° (W) 6,076 - -7.1°
Exits shadow 05:26:25 - 265° (W) 6,051 11.5 -7.1°
Reaches altitude 10° 05:31:06 10° 254° (WSW) 5,351 11.4 -6.0°
Maximum altitude 05:44:02 27° 203° (SSW) 4,492 11.4 -3.1°
Drops below altitude 10° 05:57:42 10° 152° (SSE) 5,590 12.8 0.1°
Sets 06:03:02 0° 140° (SE) 6,377 13.5 1.3°
